Flight Track Log - Related Links

Times and Time Zones

All times are in EDT time to prevent confusion due to time zone crossing. See the SWA1187 flight status page for this flight to view local times or setup timezone preferences in your user account.

Time Position Orientation Groundspeed Altitude Reporting Facility
EDT Latitude Longitude Course Direction KTS MPH feet Rate Location/Type
Thu 07:03:06 AM 44.8500 -93.2333 164° South 160 184 2,600  Level Minneapolis TRACON
Thu 07:04:21 AM 44.7944 -93.2114 164° South 195 224 5,900 2,844 Climbing Minneapolis Center
Thu 07:05:21 AM 44.7542 -93.1253 123° Southeast 255 293 9,000 3,074 Climbing Minneapolis Center
Thu 07:06:22 AM 44.7269 -93.0161 109° East 304 350 12,100 3,521 Climbing Minneapolis Center
Thu 07:07:22 AM 44.7011 -92.8903 106° East 334 384 16,100 3,818 Climbing Minneapolis Center
Thu 07:08:23 AM 44.6736 -92.7600 106° East 347 399 19,800 3,620 Climbing Minneapolis Center
Thu 07:09:23 AM 44.6375 -92.5889 106° East 375 432 23,400 3,620 Climbing Minneapolis Center
Thu 07:10:24 AM 44.6033 -92.4378 108° East 401 461 27,100 2,754 Climbing Minneapolis Center
Thu 07:11:25 AM 44.5553 -92.2994 116° Southeast 397 457 29,000 1,934 Climbing Minneapolis Center
Thu 07:12:25 AM 44.5056 -92.1522 115° Southeast 406 467 31,000 1,686 Climbing Minneapolis Center
Thu 07:13:26 AM 44.4539 -91.9967 115° Southeast 422 486 32,400 984 Climbing Minneapolis Center
Thu 07:14:27 AM 44.4000 -91.8347 115° Southeast 446 513 33,000 295 Climbing Minneapolis Center
Thu 07:15:28 AM 44.3433 -91.6692 116° Southeast 467 537 33,000  Level Minneapolis Center
Thu 07:16:28 AM 44.2881 -91.5053 115° Southeast 469 540 33,000  Level Minneapolis Center
Thu 07:17:29 AM 44.2322 -91.3439 116° Southeast 465 535 33,000  Level Minneapolis Center
Thu 07:18:30 AM 44.1794 -91.1869 115° Southeast 463 533 33,000  Level Minneapolis Center
Thu 07:19:31 AM 44.1219 -91.0258 116° Southeast 466 536 33,000  Level Minneapolis Center
Thu 07:20:31 AM 44.0667 -90.8650 116° Southeast 465 535 33,000  Level Minneapolis Center
Thu 07:21:32 AM 44.0103 -90.7053 116° Southeast 464 534 33,000  Level Minneapolis Center
Thu 07:22:33 AM 43.9414 -90.5078 116° Southeast 467 537 33,000  Level Minneapolis Center
Thu 07:23:34 AM 43.8833 -90.3456 116° Southeast 470 541 33,000 -443 Level Minneapolis Center
Thu 07:24:35 AM 43.8244 -90.1836 117° Southeast 471 542 32,100 -934 Descending Minneapolis Center
Thu 07:25:36 AM 43.7664 -90.0206 116° Southeast 472 543 31,100 -984 Descending Minneapolis Center
Thu 07:26:37 AM 43.7083 -89.8608 117° Southeast 467 537 30,100 -984 Descending Minneapolis Center
Thu 07:27:38 AM 43.6514 -89.7042 117° Southeast 461 531 29,100 -947 Descending Minneapolis Center
Thu 07:28:12 AM 43.6222 -89.6269 118° Southeast 456 525 28,600 -1,125 Descending Chicago Center
Thu 07:29:14 AM 43.5664 -89.4739 117° Southeast 451 519 27,300 -2,537 Descending Chicago Center
Thu 07:30:15 AM 43.5008 -89.2989 117° Southeast 442 509 23,400 -3,344 Descending Chicago Center
Thu 07:31:16 AM 43.4469 -89.1556 117° Southeast 429 494 20,500 -2,732 Descending Chicago Center
Thu 07:32:18 AM 43.3958 -89.0186 117° Southeast 410 472 17,800 -2,683 Descending Chicago Center
Thu 07:33:19 AM 43.3461 -88.8869 117° Southeast 395 455 15,000 -2,537 Descending Chicago Center
Thu 07:34:21 AM 43.2986 -88.7619 118° Southeast 376 433 12,600 -1,659 Descending Chicago Center
Thu 07:35:22 AM 43.2550 -88.6447 117° Southeast 353 406 11,600 -1,171 Descending Chicago Center
Thu 07:36:24 AM 43.2056 -88.5178 118° Southeast 331 381 10,200 -774 Descending Chicago Center
Thu 07:37:26 AM 43.1650 -88.4125 118° Southeast 319 367 10,000 -532 Descending Chicago Center
Thu 07:38:28 AM 43.1283 -88.3150 117° Southeast 299 344 9,100 -927 Descending Chicago Center
Thu 07:39:29 AM 43.1108 -88.2106 103° East 288 331 8,100 -1,053 Descending Chicago Center
Thu 07:40:22 AM 43.1000 -88.1000 98° East 282 325 7,100 -555 Descending KMKE
Thu 07:41:28 AM 43.1000 -88.0000 90° East 235 270 7,000 -446 Descending KMKE
Thu 07:42:23 AM 43.0833 -87.9167 105° East 238 274 6,200 -1,276 Descending KMKE
Thu 07:43:35 AM 43.0703 -87.8200 100° East 233 268 4,300 -1,343 Descending Chicago Center
Thu 07:44:37 AM 43.0144 -87.7900 159° South 218 251 3,200 -1,016 Descending Chicago Center
Thu 07:45:39 AM 42.9714 -87.7894 179° South 179 206 2,200 -878 Descending Chicago Center
Thu 07:46:40 AM 42.9561 -87.8444 249° West 147 169 1,400 -776 Descending Chicago Center
Thu 07:47:35 AM 42.9500 -87.8833 258° West 121 139 700 -764 Descending KMKE
Thu 07:49:00 AM 42.9333 -87.8833 200° South  Level FlightAware Approximate

Login

Don't have an account? Register now (free) for customized features, flight alerts, and more!